Grand Junction, CO

6:16 AM MDT on June 28, 2017 (GMT -0600)
Walker

Weather History for KGJT - October, 2014

Change the Weather History Date:

Wednesday, October 29, 2014

  Actual Average Record
Temperature  
Mean Temperature 46 °F 47 °F  
Max Temperature 63 °F 60 °F 79 °F (1964)
Min Temperature 29 °F 35 °F 16 °F (1917)
Degree Days  
Heating Degree Days 19 18  
Month to date heating degree days 294 338  
Since 1 July heating degree days 340 412  
Cooling Degree Days 0 0  
Month to date cooling degree days 0 1  
Year to date cooling degree days 1046 1123  
Moisture  
Dew Point 16 °F    
Average Humidity 36    
Maximum Humidity 58    
Minimum Humidity 14    
Precipitation  
Precipitation 0.00 in 0.03 in 0.39 in (2013)
Month to date precipitation 0.58 1.00  
Year to date precipitation 10.51 8.04  
Snow  
Snow 0.00 in 0.00 in 2.30 in (2015)
Month to date snowfall 0.0 0.3  
Since 1 July snowfall 0.0 0.3  
Since 1 September snowfall 0.0 0.3  
Snow Depth 0.00 in    
Sea Level Pressure  
Sea Level Pressure 30.26 in    
Wind  
Wind Speed 5 mph (ESE)    
Max Wind Speed 12 mph    
Max Gust Speed 15 mph    
Visibility 10 miles    
Events      
T = Trace of Precipitation, MM = Missing Value Source: NWS Daily Summary

Daily Weather History Graph

Daily Weather History Graph

Search for Another Location

Airport or City:

Trip Planner

Search our weather history database for the weather conditions in past years. The results will help you decide how hot, cold, wet, or windy it might be!

Date:

Astronomy

Oct. 29, 2014 Rise Set
Actual Time 7:38 AM MDT 6:16 PM MDT
Civil Twilight 7:10 AM MDT 6:44 PM MDT
Nautical Twilight 6:39 AM MDT 7:15 PM MDT
Astronomical Twilight 6:08 AM MDT 7:46 PM MDT
Moon 12:59 PM MDT (10/29) 11:30 PM MDT (10/29)
Length of Visible Light 11h 33m
Length of Day
10h 38m
Waxing Crescent, 35% of the Moon is Illuminated
Oct 29
Waxing Crescent
Oct 30
First Quarter
Nov 6
Full
Nov 14
Last Quarter
Nov 22
New

Hourly Weather History & Observations

Time (MDT) Temp. Windchill Dew Point Humidity Pressure Visibility Wind Dir Wind Speed Gust Speed Precip Events Conditions
12:53 AM 37.0 °F 33.3 °F 12.0 °F 36% 30.24 in 10.0 mi ESE 4.6 mph - N/A   Clear
1:53 AM 36.0 °F 28.0 °F 12.9 °F 39% 30.24 in 10.0 mi ESE 11.5 mph - N/A   Clear
2:53 AM 36.0 °F 30.3 °F 14.0 °F 41% 30.24 in 10.0 mi East 6.9 mph - N/A   Clear
3:53 AM 36.0 °F 29.0 °F 14.0 °F 41% 30.23 in 10.0 mi SSE 9.2 mph - N/A   Clear
4:53 AM 33.1 °F 27.7 °F 14.0 °F 46% 30.25 in 10.0 mi ESE 5.8 mph - 0.00 in   Clear
5:53 AM 30.0 °F 24.1 °F 15.1 °F 54% 30.28 in 10.0 mi East 5.8 mph - N/A   Clear
6:53 AM 30.9 °F 27.5 °F 15.1 °F 52% 30.32 in 10.0 mi East 3.5 mph - N/A   Clear
7:53 AM 28.9 °F 25.2 °F 15.1 °F 56% 30.35 in 10.0 mi ESE 3.5 mph - N/A   Clear
8:53 AM 37.4 °F 34.9 °F 15.8 °F 41% 30.35 in 10.0 mi Variable 3.5 mph - N/A   Clear
9:53 AM 43.0 °F 39.5 °F 16.0 °F 34% 30.33 in 10.0 mi SSE 5.8 mph - N/A   Clear
10:53 AM 50.0 °F - 16.0 °F 26% 30.31 in 10.0 mi SE 4.6 mph - N/A   Clear
11:53 AM 53.1 °F - 14.0 °F 21% 30.30 in 10.0 mi Calm Calm - N/A   Clear
12:53 PM 55.9 °F - 12.9 °F 18% 30.26 in 10.0 mi SE 3.5 mph - N/A   Clear
1:53 PM 59.0 °F - 12.0 °F 16% 30.22 in 10.0 mi Variable 3.5 mph - N/A   Clear
2:53 PM 62.1 °F - 12.9 °F 15% 30.19 in 10.0 mi WNW 5.8 mph - N/A   Clear
3:53 PM 62.1 °F - 14.0 °F 15% 30.17 in 10.0 mi NW 4.6 mph - N/A   Clear
4:53 PM 61.0 °F - 12.9 °F 15% 30.18 in 10.0 mi NNW 10.4 mph - N/A   Clear
5:53 PM 59.0 °F - 18.0 °F 20% 30.19 in 10.0 mi West 4.6 mph - N/A   Clear
6:53 PM 45.0 °F - 21.9 °F 40% 30.25 in 10.0 mi Calm Calm - N/A   Clear
7:53 PM 41.0 °F - 19.0 °F 41% 30.29 in 10.0 mi Calm Calm - N/A   Clear
8:53 PM 44.1 °F 41.5 °F 18.0 °F 35% 30.25 in 10.0 mi ENE 4.6 mph - N/A   Clear
9:53 PM 37.9 °F 34.4 °F 19.0 °F 47% 30.26 in 10.0 mi ENE 4.6 mph - N/A   Clear
10:53 PM 43.0 °F 40.3 °F 18.0 °F 37% 30.24 in 10.0 mi ENE 4.6 mph - N/A   Clear
11:53 PM 39.0 °F 33.4 °F 19.0 °F 45% 30.25 in 10.0 mi East 8.1 mph - N/A   Clear